Starlink 32380

operational
NORAD ID: 61069 Int'l Des: 2024-164 Owner: SPXS Country: US Constellation: starlink
LEOCIRCULAR

About Starlink 32380

Description loading...

Live Position

Loading 3D Globe...

Upcoming Passes

Altitude History

Altitude vs Time

uPlot chart will show altitude changes over time

Two-Line Element Set

1 61069U 24164V 25304.47609226 .00002185 00000-0 85897-4 0 9996
2 61069 53.1605 331.3545 0001459 86.7822 273.3346 15.30189063 63698
Epoch: Oct 31, 2025 • Age: 30 hours

Current Status

Altitude 477.3 km
Velocity 7.63 km/s
Sub-Earth Point 36.00°N, 55.85°E
Launch Date Sep 13, 2024
Age 1.1 years
Type internet

Technical Details

Classification Payload
Mass 730.00 kg
Dry Mass 700.00 kg
Total Mass 730.00 kg
Length 0.30 m
Diameter 4.10 m
Span 29.00 m
Shape Box + pan
Manufacturer SPXS
Bus Type Starlink V2M
Phase Status In Orbit
Owner/State SPXS/US

Large Constellations

Loading constellations...